Temp
15 16 16 16 16 16 16 16 17 17 17 17 18 18 18 18 18 18 18 18 18 18 18 18 18 19 19 19 19 19 19 19 19 18 17 17 17 18 18 19 19 19 20 20 20 21 20 20 20 19 21 20 16 16 17 15 15 18 19 18 18 17 17 18 18 17 17 18 18 17 14 15 16 14 13 12 13 14 13 14 13 13 13 14 14 14 14 13
16 16 16 16 16 16 16 16 17 17 17 17 18 18 18 18 18 18 18 18 18 18 18 18 19 19 19 19 19 19 19 19 19 17 17 17 18 18 19 19 19 19 20 20 20 19 19 19 17 18 20 19 16 17 18 16 16 18 17 17 18 18 17 17 18 17 16 18 18 16 13 13 15 14 13 15 16 13 14 15 14 15 15 14 14 14 14 13
16 16 16 16 16 16 17 17 17 17 18 18 18 18 18 18 18 18 18 18 18 18 18 19 19 19 19 19 19 19 19 19 18 17 18 18 18 18 19 19 19 19 20 19 19 19 19 19 17 18 20 20 16 17 19 17 16 17 16 18 19 17 17 15 16 17 16 16 16 15 12 13 14 12 13 14 15 14 14 15 15 16 16 15 14 13 14 13
15 16 16 16 17 17 17 17 18 18 18 18 18 18 18 18 18 18 19 19 19 19 19 19 19 19 19 19 19 19 19 19 18 17 18 18 18 18 19 19 19 19 19 19 19 19 18 18 16 18 20 19 17 16 18 17 16 16 16 20 18 14 17 17 16 15 14 12 13 14 13 14 13 11 13 14 14 15 16 16 15 15 15 14 14 12 12 11
15 16 16 17 17 17 17 18 18 18 18 18 18 18 18 18 18 19 19 19 19 19 19 19 19 19 19 19 20 19 19 19 18 17 18 18 18 18 19 19 19 19 19 19 19 18 18 17 16 18 19 19 18 17 18 15 15 17 17 18 16 13 17 17 14 13 12 11 12 13 13 13 12 12 13 13 14 15 17 16 14 13 13 12 12 11 10 10
16 16 16 17 17 17 17 18 18 18 19 19 19 18 18 18 19 19 19 19 19 19 20 19 19 19 19 20 20 19 19 19 18 18 18 18 19 18 19 19 19 19 19 19 19 18 18 17 18 19 18 19 18 18 17 13 13 17 18 16 13 13 16 15 13 13 10 11 13 13 12 11 12 14 12 12 14 15 16 14 12 11 10 9 9 9 10 10
16 16 17 17 17 17 17 18 18 18 19 19 19 18 18 19 19 19 19 19 19 19 20 20 20 19 19 20 20 19 18 18 18 18 18 18 19 18 19 19 19 19 19 19 18 18 18 18 19 18 18 18 17 17 16 14 13 16 18 16 13 12 14 14 12 12 10 11 12 10 11 12 14 14 11 12 15 14 13 11 10 10 9 9 9 10 10 10
16 16 17 17 17 17 18 18 18 19 19 19 19 18 19 19 19 19 19 20 19 19 20 20 20 19 19 20 19 18 17 18 18 18 18 18 18 18 19 19 19 19 18 17 16 17 18 18 18 16 18 18 16 16 15 15 15 16 17 16 13 12 13 12 11 13 12 11 10 9 12 14 13 12 12 15 15 12 11 10 10 10 9 9 10 10 10 9
16 17 17 17 17 18 18 19 19 19 19 19 19 19 19 19 19 19 19 20 19 20 19 20 20 19 20 18 17 18 18 18 18 18 18 18 18 18 19 19 19 19 18 17 16 17 17 17 17 16 18 16 15 16 15 16 17 15 15 15 14 13 12 12 13 14 12 10 10 11 13 13 11 10 14 15 13 11 10 10 10 10 10 9 10 10 9 9
16 17 17 17 18 18 18 19 19 19 19 19 19 19 19 19 19 19 20 20 19 20 19 20 20 19 20 18 17 18 18 18 18 18 18 18 18 19 19 19 19 19 18 18 17 16 16 17 15 15 17 15 15 15 14 16 15 13 13 13 13 12 12 12 13 13 11 11 10 11 14 12 10 12 15 14 11 10 9 10 9 9 9 9 9 9 9 9
17 17 17 18 18 18 19 19 19 19 19 19 19 19 19 19 20 20 20 20 20 20 20 20 20 20 20 18 17 18 18 18 18 17 17 18 19 19 19 19 19 19 19 18 17 16 16 16 13 14 17 15 15 14 13 13 13 12 13 15 13 12 13 12 13 12 11 13 10 10 14 13 13 13 13 10 9 10 9 9 8 8 8 8 8 9 8 8
17 17 18 18 18 19 19 19 19 19 19 19 19 19 20 20 20 20 20 20 20 20 20 20 20 20 19 17 17 18 18 18 18 17 17 18 19 19 18 19 19 19 19 18 17 16 16 15 15 17 16 15 15 15 14 11 11 12 13 16 16 13 14 12 12 12 12 14 10 10 15 15 14 13 10 9 9 9 8 8 8 7 7 7 8 8 8 7
17 18 18 18 18 19 19 19 19 19 19 19 19 19 19 20 20 20 20 20 20 19 20 20 20 20 20 18 18 18 19 18 18 18 19 19 19 18 18 18 19 19 18 18 17 17 17 16 17 16 14 14 15 14 13 11 11 13 11 13 15 15 16 12 10 11 13 14 10 13 17 16 13 10 9 8 8 8 7 7 7 7 7 7 7 7 7 7
18 18 18 18 19 19 19 19 19 19 19 19 19 19 19 20 20 20 20 20 20 20 20 20 20 20 19 19 19 19 19 18 18 18 18 18 19 19 18 18 19 18 18 18 17 16 16 16 16 14 12 13 13 12 13 12 12 13 12 12 12 15 18 13 9 11 14 13 11 15 17 16 13 9 8 8 7 7 6 6 6 6 6 6 6 6 7 6
18 18 18 18 19 19 19 19 19 19 19 19 19 20 20 20 20 20 20 20 20 20 20 20 20 20 19 19 19 19 19 18 18 17 16 17 18 18 18 18 18 18 18 17 17 16 16 17 16 14 13 12 11 13 15 15 13 12 15 16 12 13 15 13 9 9 12 12 12 15 16 15 12 7 7 7 6 6 6 6 6 6 6 6 6 6 6 6
18 18 18 19 19 19 19 19 19 19 19 19 19 19 20 20 20 20 20 20 20 20 20 20 20 20 20 19 19 19 18 17 17 16 15 16 16 17 17 17 17 17 17 17 17 16 16 16 13 11 13 12 11 14 16 17 15 12 13 16 14 13 13 14 11 7 9 12 12 13 15 15 11 7 7 6 6 6 5 5 5 5 5 5 5 5 5 5
18 18 18 19 19 19 19 19 19 19 19 19 19 19 20 20 20 20 20 20 20 20 20 20 19 19 19 19 19 18 16 16 17 16 15 16 15 16 17 16 15 16 16 16 17 16 15 14 12 11 12 11 10 13 17 17 15 13 12 12 12 11 11 13 13 9 9 11 11 11 13 13 9 6 6 6 6 5 5 5 5 5 5 5 5 5 5 5
18 18 19 19 19 19 19 19 19 19 20 20 20 20 20 20 20 20 20 20 20 20 20 19 19 19 19 18 17 16 16 16 17 16 16 16 16 16 17 15 14 15 17 17 17 15 14 14 14 15 14 11 10 12 16 15 13 13 11 11 11 10 11 12 13 11 9 10 10 11 12 11 7 6 6 5 5 5 4 5 5 5 5 5 5 4 5 5
18 19 19 19 19 19 19 20 20 20 20 20 20 20 20 20 20 20 19 19 19 19 19 17 17 18 18 17 16 16 15 16 17 16 15 16 16 17 16 14 13 15 18 18 17 14 13 15 15 15 14 12 10 9 12 12 11 11 10 10 10 10 12 12 12 10 8 10 11 11 11 8 6 6 5 5 5 4 4 4 4 4 4 4 4 4 4 4
19 19 19 19 19 19 20 20 20 21 21 21 21 21 21 20 20 20 18 16 15 15 17 16 15 16 17 16 15 16 16 17 17 15 15 15 15 17 15 13 15 15 15 15 16 13 12 14 14 13 13 11 10 8 9 9 9 9 9 9 9 9 10 11 12 9 8 11 10 9 9 6 5 5 5 5 5 4 4 4 4 4 4 4 4 4 4 4
19 19 19 19 19 20 20 20 20 21 21 21 21 20 19 18 19 19 17 15 12 12 15 15 14 15 16 15 15 14 15 17 16 14 15 15 14 17 15 14 17 16 12 11 12 13 13 14 13 11 11 9 8 7 7 8 8 8 9 9 10 10 11 12 11 9 8 10 10 8 8 6 5 5 4 4 4 4 4 4 4 4 4 4 4 4 4 4
19 19 19 19 20 20 20 20 20 21 21 21 20 17 15 15 17 17 17 18 15 12 14 14 13 15 15 15 14 13 14 15 16 15 14 15 15 17 15 13 16 15 12 11 14 15 15 14 12 10 8 7 7 7 8 9 9 9 9 9 11 11 11 12 11 8 8 9 10 9 7 6 5 4 4 4 4 4 4 3 4 3 4 4 4 4 4 4
19 19 19 19 20 20 20 20 20 20 20 21 19 16 15 16 16 16 17 19 17 15 15 16 15 15 15 15 14 14 15 14 15 14 13 14 14 13 14 14 15 14 13 14 16 16 15 14 11 7 7 9 10 9 9 10 10 10 10 11 13 12 10 12 11 9 8 8 8 9 7 5 5 5 4 4 4 4 4 4 3 3 4 3 4 4 3 3
19 19 19 19 19 20 20 20 20 20 19 19 18 16 16 17 16 16 17 17 17 16 16 15 15 15 15 15 14 15 15 14 13 14 13 13 13 12 12 12 14 15 12 12 15 15 15 13 8 7 9 12 13 11 10 11 11 11 11 12 13 11 10 11 10 8 8 7 6 8 9 7 6 5 4 4 4 4 3 3 3 3 3 3 4 4 3 3
19 19 19 19 20 20 20 20 20 19 19 18 17 16 16 17 16 16 17 17 18 18 16 15 15 15 15 15 14 13 14 14 13 13 13 11 12 14 13 10 13 15 12 11 13 15 14 10 7 10 12 12 13 12 10 10 11 12 12 12 12 11 9 8 8 8 11 11 8 9 12 11 7 5 4 4 3 3 3 3 3 3 3 3 3 3 3 3
19 19 19 19 20 20 20 20 19 19 19 17 16 16 16 17 16 16 18 19 19 18 17 18 18 17 17 15 11 10 15 17 14 13 13 12 11 13 14 11 12 14 11 11 12 14 13 10 9 12 13 13 13 12 10 9 11 13 13 11 10 9 8 8 8 9 12 13 10 8 12 12 9 5 4 3 2 2 3 3 3 3 3 3 3 3 3 3
19 19 19 19 19 20 21 20 19 19 19 17 16 16 16 16 16 16 18 20 19 17 17 18 18 18 17 14 10 13 17 16 15 14 13 12 11 12 15 14 13 12 9 10 14 14 12 13 12 12 13 14 13 12 11 9 11 14 12 9 9 9 9 8 7 9 10 10 10 8 10 12 11 7 3 3 3 2 2 2 2 3 2 2 3 3 3 3
19 19 19 19 19 20 20 19 19 18 17 17 16 16 16 16 16 17 20 20 18 17 17 17 17 17 15 12 12 15 15 13 15 16 12 12 12 12 15 13 13 13 9 11 17 14 11 13 13 13 14 14 13 12 10 9 11 14 11 8 8 8 7 7 7 9 7 8 12 11 9 11 12 9 3 3 4 2 2 2 2 2 2 2 2 2 3 2
19 19 19 19 19 20 19 19 19 17 17 17 16 16 16 16 16 18 20 19 17 18 17 16 18 16 12 13 14 13 13 12 14 14 12 13 13 13 14 11 11 13 10 11 15 13 11 11 10 11 13 14 13 12 9 9 12 12 9 9 8 6 5 6 7 9 8 9 13 12 11 11 12 11 6 4 4 1 1 2 2 2 2 2 2 2 2 2
19 19 19 19 20 19 19 19 18 17 17 16 16 16 16 16 17 20 20 18 17 17 15 15 16 12 11 15 17 13 13 13 10 11 12 12 12 12 10 8 10 13 12 12 14 13 10 8 7 10 12 11 11 11 8 8 10 10 9 11 11 9 8 7 7 9 10 11 12 11 11 10 10 9 5 3 4 2 1 2 2 2 2 2 2 2 2 2
19 19 19 19 19 19 19 18 17 17 17 16 16 16 17 18 18 20 18 16 17 15 14 14 12 11 10 13 14 12 13 13 10 12 13 10 10 11 11 9 10 14 14 13 14 14 12 11 10 9 9 8 10 11 9 7 8 10 10 11 12 11 10 9 9 10 10 11 11 10 9 9 10 8 4 2 3 2 1 2 1 2 2 2 2 2 3 3
19 19 19 19 19 18 18 17 17 17 16 17 16 15 19 20 17 17 16 15 17 14 13 13 11 11 10 10 12 11 12 13 11 11 11 10 9 8 9 9 9 12 14 12 13 14 14 14 12 9 8 8 10 12 11 9 10 10 10 10 10 9 9 9 10 10 9 10 11 10 8 8 9 8 4 2 2 2 2 2 2 2 2 2 2 3 3 3
19 19 19 19 18 18 17 16 16 17 17 16 16 16 20 21 17 14 13 15 16 12 10 10 10 9 10 12 13 10 10 13 12 10 10 10 10 8 8 8 7 11 13 12 11 13 14 14 12 12 11 9 10 11 11 11 11 10 10 10 10 9 7 8 8 8 9 9 10 10 8 8 9 7 3 2 3 2 2 2 2 2 2 2 2 2 2 2
19 19 19 18 17 17 16 16 16 17 16 16 18 19 20 19 16 13 13 14 12 10 9 9 9 10 11 13 12 9 12 13 12 12 12 11 12 11 10 9 8 8 10 11 10 10 13 13 13 14 12 11 11 10 9 10 10 8 9 10 10 9 7 7 8 8 8 8 9 9 8 9 9 6 3 2 2 2 2 2 2 2 2 2 2 2 2 2
19 19 19 17 17 16 15 15 16 16 16 16 18 19 19 17 14 12 13 12 10 10 10 8 10 14 15 13 10 9 12 13 12 12 12 11 11 10 9 8 8 7 9 11 10 9 11 13 13 12 10 11 11 9 8 9 10 8 8 9 9 8 8 8 8 8 7 6 7 7 8 9 7 3 1 2 2 2 3 2 2 2 2 2 1 1 1 1
19 19 18 16 16 15 15 16 16 16 16 18 18 16 14 14 12 12 11 10 9 9 10 11 12 15 16 14 13 11 11 12 13 13 12 10 9 9 9 8 7 7 8 10 9 9 11 13 13 11 11 11 9 8 7 8 11 10 8 9 8 7 8 8 7 7 6 5 6 7 7 8 6 3 1 1 1 2 2 2 2 3 3 2 1 1 1 1
19 18 17 15 15 16 16 16 16 16 16 18 18 14 11 10 10 10 8 8 7 6 10 15 14 13 14 14 14 13 12 12 13 13 13 11 10 9 9 8 7 6 6 7 8 9 9 11 11 10 12 11 6 7 8 7 8 10 8 8 7 7 7 6 6 5 5 5 6 7 6 6 6 5 1 1 2 2 2 3 3 3 3 2 1 1 1 1
18 18 17 15 15 15 16 16 16 16 16 15 14 11 10 10 8 7 7 6 6 6 11 15 13 12 12 13 14 12 11 13 13 12 12 12 11 9 8 8 7 6 5 5 8 8 6 10 11 8 10 10 7 8 10 7 7 8 8 7 6 6 6 5 4 4 4 4 4 6 6 5 6 5 3 2 3 2 2 3 3 2 2 1 0 1 1 1
18 19 17 16 16 15 16 17 15 15 16 15 13 11 10 10 8 6 5 6 6 8 12 13 11 12 11 12 13 10 9 11 12 11 12 12 11 8 7 7 7 6 5 5 8 7 6 9 11 9 9 10 9 9 9 8 7 7 7 5 5 5 5 4 4 4 4 3 3 4 4 5 6 5 3 2 2 2 2 3 2 2 1 0 0 0 0 0
17 19 18 16 17 16 16 17 14 13 15 12 11 11 10 10 9 5 3 4 7 9 11 11 11 12 12 11 10 9 9 9 10 11 12 11 10 9 5 4 5 5 4 5 6 6 6 9 10 10 10 10 9 7 7 8 7 6 6 4 3 4 4 3 3 4 4 3 2 2 3 4 5 4 2 2 2 2 3 2 2 1 0 0 0 0 -0 -0
15 20 20 16 17 17 18 17 11 9 11 10 10 10 9 9 9 7 3 2 6 8 9 10 11 11 11 11 10 9 9 9 9 10 11 10 10 10 5 -0 1 2 4 7 7 5 7 8 8 9 9 9 8 5 5 6 6 5 5 3 2 2 3 3 2 3 3 3 2 2 1 3 4 3 3 3 2 2 2 2 1 0 -0 0 -0 -0 -0 -1
16 19 19 17 18 17 17 15 8 7 10 11 10 9 8 8 9 9 6 3 5 8 8 9 10 9 9 10 10 9 9 10 10 10 11 9 9 9 3 -2 -2 -0 3 7 6 4 5 6 6 8 8 8 6 3 3 3 3 4 3 2 1 1 2 2 2 2 2 2 2 2 1 3 4 3 3 3 2 2 2 1 -0 -0 -0 -0 -0 -1 -1 -1
18 19 17 17 18 18 17 15 10 8 10 8 7 7 7 7 9 9 8 7 8 9 10 10 9 9 9 9 9 10 9 10 11 10 10 9 8 5 1 -2 -1 0 3 7 6 4 5 6 7 8 8 6 4 2 2 2 3 3 2 0 0 0 1 1 1 1 0 1 1 1 0 2 3 4 3 3 2 2 1 0 -0 -0 -1 -1 -1 -1 -1 -1
17 16 16 16 19 20 19 17 14 11 10 8 9 9 7 7 9 10 9 9 9 9 11 11 9 9 9 7 8 10 10 10 11 10 9 10 7 2 -2 -2 -0 1 3 5 5 4 6 8 7 7 7 6 6 5 4 4 4 3 1 -1 -0 -0 -0 0 0 -0 -1 1 2 -0 -1 2 4 4 3 2 2 1 0 -0 -1 -1 -1 -1 -1 -1 -1 -1
16 17 17 16 16 16 14 13 13 13 11 11 12 10 9 9 8 7 9 9 7 7 10 11 8 8 8 7 8 9 9 11 11 9 8 9 6 2 -2 -2 -1 1 2 1 0 2 6 7 7 6 6 5 6 6 6 5 4 3 1 -0 -0 -0 0 1 0 -1 -1 1 1 -1 -1 1 3 3 2 1 1 0 -1 -1 -1 -1 -1 -1 -1 -1 -1 -1
19 19 18 17 13 10 9 7 10 14 13 13 13 10 10 12 9 6 7 9 7 6 8 9 7 8 8 8 10 10 9 9 9 9 9 8 7 4 -1 -2 -1 -0 1 -0 -2 1 5 6 6 7 6 5 6 6 6 5 4 4 3 1 -0 -0 -0 0 -0 -1 -0 -0 -1 -0 0 0 1 1 0 0 -0 -1 -1 -1 -1 -1 -1 -1 -1 -1 -1 -1
18 17 15 17 16 14 12 8 9 12 11 12 14 11 11 12 11 9 8 8 8 7 8 8 7 9 10 9 10 11 10 9 8 8 7 6 7 4 -1 -1 1 -0 1 1 -1 2 7 6 5 5 5 5 5 5 4 4 3 4 3 1 0 -0 -1 -1 -1 -0 -0 -1 -2 0 0 -1 -1 -0 -0 -1 -1 -2 -2 -2 -2 -1 -1 -1 -1 -2 -2 -2
16 14 10 12 15 15 14 12 9 10 10 10 10 10 11 12 12 12 10 9 8 8 9 10 8 8 8 8 10 11 10 10 9 8 6 5 6 6 3 3 2 0 2 3 1 2 6 6 4 3 4 4 3 3 3 3 3 3 2 1 0 -0 -1 -1 -1 -0 -0 -2 -2 -0 -1 -2 -1 -1 -1 -1 -2 -2 -2 -2 -2 -1 -2 -2 -2 -2 -2 -2
13 13 9 8 11 11 9 8 8 10 11 11 10 10 12 13 12 10 8 9 11 10 10 13 11 7 6 6 8 10 9 10 10 8 7 6 5 6 7 6 4 2 2 4 2 1 4 6 4 2 2 3 3 4 4 3 3 2 1 0 -0 -0 -0 -0 -0 -0 -1 -1 -1 -1 -2 -2 -1 -1 -2 -2 -2 -2 -2 -1 -2 -2 -2 -2 -2 -2 -2 -2
14 16 12 10 10 7 6 6 9 13 13 11 12 11 9 11 13 9 7 9 13 12 10 11 10 7 6 6 8 9 8 8 9 7 6 6 5 5 6 6 5 4 3 3 2 2 3 5 4 1 1 3 4 4 3 2 2 1 0 0 -0 -0 0 -0 -1 -1 -1 -2 -1 -2 -2 -2 -1 -1 -2 -2 -2 -2 -2 -2 -2 -2 -2 -2 -2 -2 -2 -2
13 13 13 16 13 7 8 8 8 14 15 11 12 11 9 11 11 9 9 8 9 11 10 9 9 7 5 5 7 8 7 6 7 6 5 5 5 4 4 4 3 5 4 2 1 1 2 3 2 -0 1 4 4 3 3 2 1 0 -0 0 -0 -0 -0 -1 -1 -1 -1 -2 -2 -3 -3 -3 -2 -2 -2 -2 -2 -2 -2 -2 -2 -2 -2 -2 -2 -2 -2 -2
13 11 11 16 15 8 7 9 9 13 14 10 9 9 9 10 6 7 11 9 6 7 6 6 8 8 8 9 7 6 5 4 3 2 1 2 2 1 1 1 1 2 3 2 -0 -1 -1 1 2 -0 1 4 4 2 2 1 1 1 0 -0 -0 -1 -1 -1 -1 -1 -1 -1 -3 -4 -3 -3 -2 -2 -3 -3 -3 -3 -3 -3 -3 -2 -3 -2 -2 -2 -2 -2
Height
804 804 804 805 805 805 805 805 805 804 804 803 802 802 801 801 800 800 799 798 798 797 797 795 794 793 793 793 793 793 794 794 793 792 793 797 798 796 795 793 793 791 791 790 788 787 787 787 786 786 785 787 792 793 793 795 796 796 801 807 808 812 810 803 802 803 802 797 794 797 803 802 799 801 800 798 798 798 796 793 793 790 787 784 781 779 779 777
804 805 805 805 805 805 805 805 804 804 804 803 803 802 802 801 800 800 799 799 799 798 798 796 795 794 793 793 793 793 794 794 793 794 796 798 798 796 795 794 793 792 791 790 789 788 788 789 787 787 787 789 794 794 793 795 796 798 806 808 805 806 803 799 798 799 801 797 794 799 806 806 802 803 803 798 796 800 799 792 790 788 783 780 779 780 778 776
805 805 805 805 805 805 805 805 804 804 804 803 803 802 802 802 801 801 800 800 799 799 798 796 796 794 794 794 793 794 794 794 794 796 798 798 797 796 795 794 793 792 791 790 789 789 788 788 787 787 788 790 795 794 792 795 797 800 806 804 801 802 801 801 800 798 800 800 799 802 809 807 804 807 805 802 800 800 799 793 790 786 781 778 777 778 777 775
805 805 805 805 805 805 805 805 804 804 804 803 803 802 802 802 801 801 800 800 799 799 798 796 795 794 794 793 793 793 792 794 799 800 799 798 798 797 795 794 793 791 791 790 789 788 788 788 787 788 789 791 797 797 795 797 799 802 803 798 798 805 801 797 800 801 803 807 806 805 807 804 805 810 805 804 804 798 794 792 791 788 784 779 774 775 775 774
805 805 806 805 805 805 805 805 805 805 804 804 803 802 802 801 801 801 801 800 799 799 797 796 795 794 794 793 793 791 791 799 804 801 799 799 798 797 796 794 793 791 791 789 789 789 788 788 788 790 791 792 796 796 797 801 801 800 800 797 801 808 801 798 805 806 808 811 808 807 806 805 808 809 805 806 806 798 791 790 791 790 786 782 778 775 774 774
805 806 806 806 806 806 806 806 805 805 804 804 803 803 802 801 802 801 801 800 799 799 797 796 795 794 794 793 793 789 794 804 805 801 800 800 798 797 796 794 793 791 790 790 789 789 788 789 788 791 793 794 797 797 797 804 804 799 798 801 806 809 803 803 807 807 812 810 806 808 808 810 808 805 807 808 803 797 792 791 792 789 788 786 784 781 779 779
806 806 806 806 806 806 806 806 805 805 804 804 803 803 802 802 802 801 801 801 800 799 797 796 795 795 794 794 794 792 798 805 804 801 801 799 798 797 795 794 794 791 791 790 789 789 790 790 790 795 795 795 800 800 801 805 805 802 799 801 809 811 806 807 809 809 813 811 810 813 810 809 806 804 809 805 798 797 795 794 793 791 791 789 787 786 785 783
806 807 807 807 806 806 806 806 805 805 805 804 804 804 803 803 802 802 802 801 800 799 798 797 796 795 794 794 795 797 802 804 803 802 801 799 798 797 795 795 793 792 792 790 791 791 791 792 793 797 797 798 802 802 805 804 804 804 802 803 808 810 809 810 809 807 809 812 813 813 808 805 806 808 806 799 797 799 797 796 794 793 792 790 789 788 787 786
807 807 807 807 807 806 806 806 806 805 805 805 805 804 804 803 803 802 802 801 800 799 799 797 797 796 795 796 796 801 806 805 804 802 800 799 797 796 795 795 794 793 792 791 792 791 792 795 796 797 796 801 804 803 805 802 803 806 804 805 808 810 811 810 807 805 809 813 813 809 804 805 809 809 801 797 801 801 799 797 795 794 792 792 793 792 790 788
807 807 807 807 807 807 806 806 806 806 806 805 805 805 804 804 803 803 802 801 800 800 799 798 798 798 796 796 797 804 808 805 804 802 800 797 796 795 794 795 794 793 793 793 793 792 794 795 796 798 797 802 805 805 807 804 806 810 808 807 810 813 811 810 808 808 812 812 813 809 803 806 809 806 801 802 805 803 799 797 795 795 796 799 797 796 795 792
808 807 807 808 807 807 807 807 807 806 806 805 805 805 804 804 803 803 802 801 801 800 800 800 799 799 799 798 800 808 808 805 805 801 798 796 794 794 794 794 794 794 794 794 794 794 795 795 797 797 797 803 804 806 809 808 810 810 808 804 809 814 810 812 810 809 812 808 813 812 803 804 803 804 811 813 811 806 802 800 799 800 802 804 801 801 799 797
808 808 808 808 808 808 807 807 807 806 806 805 805 805 804 804 803 803 802 802 801 801 801 800 800 799 799 800 803 808 807 805 805 801 798 795 794 794 794 794 794 794 794 795 796 795 795 795 796 796 801 805 804 805 806 811 813 810 808 801 804 811 809 813 812 811 811 804 811 810 799 801 804 811 819 818 814 808 805 805 806 807 808 807 806 804 803 803
808 808 808 808 808 808 808 808 807 807 806 806 805 804 804 803 803 803 802 802 802 802 801 800 800 799 799 803 806 807 806 806 804 800 797 795 795 795 795 795 794 795 795 795 796 796 796 796 796 799 804 804 804 806 806 813 812 809 816 811 807 807 804 814 817 812 807 805 810 804 797 804 812 822 824 820 818 811 809 812 812 811 811 811 809 808 806 806
809 809 809 809 809 809 809 808 807 807 806 806 805 804 804 803 803 803 803 803 802 802 801 801 801 799 801 805 807 806 806 806 802 798 797 797 796 795 795 795 795 795 795 796 797 797 797 796 797 800 805 807 809 808 807 812 811 811 816 817 821 813 800 811 822 814 805 808 809 799 799 806 816 830 829 825 823 817 816 819 817 815 814 813 813 812 810 810
809 810 810 809 810 809 809 808 808 807 807 806 806 804 804 803 803 803 803 803 803 803 802 801 801 800 803 807 806 806 806 803 801 801 800 799 797 796 796 796 796 796 796 797 797 798 798 797 799 804 808 809 809 808 807 809 814 819 811 809 826 824 810 814 824 824 815 813 811 801 802 806 819 836 834 831 828 822 822 822 821 819 817 816 814 814 813 813
810 810 810 810 810 809 809 809 808 808 807 807 806 805 804 804 804 803 803 803 803 803 802 801 801 800 806 810 807 806 806 804 803 804 802 800 799 798 798 797 798 797 797 798 798 798 798 798 806 813 812 810 813 812 805 805 815 826 823 817 824 826 821 814 817 830 826 817 814 811 808 808 823 839 837 835 832 826 824 825 825 823 821 819 816 815 813 811
811 811 811 811 810 810 810 809 809 808 808 807 807 806 805 804 804 803 803 803 803 804 802 803 802 801 807 810 809 809 810 808 806 805 803 801 801 800 798 798 799 798 798 797 797 799 799 803 812 815 815 820 826 816 805 814 822 827 835 833 832 835 833 819 813 825 827 819 821 822 815 815 831 842 839 838 835 830 828 829 829 827 825 823 820 818 815 813
811 811 811 811 811 811 810 810 809 809 808 808 807 807 806 806 805 804 803 803 803 803 803 804 803 807 813 812 814 816 813 811 808 806 802 801 801 800 799 799 799 799 798 798 800 804 805 808 810 809 815 825 835 830 820 831 837 833 839 839 839 841 836 828 819 821 827 823 825 824 817 825 841 843 840 840 837 834 833 833 831 829 827 824 822 821 818 817
811 812 811 811 811 811 811 810 809 809 809 808 808 807 807 806 806 805 805 804 807 810 815 817 814 820 824 820 819 817 814 813 810 807 804 802 802 801 801 801 803 802 802 804 806 812 813 810 812 816 825 834 844 849 840 841 844 843 849 849 848 845 835 830 825 826 833 825 822 825 822 834 846 843 842 842 838 836 834 834 832 829 828 826 824 823 821 820
812 812 812 812 812 812 811 810 810 810 809 809 808 807 808 810 811 812 813 813 817 823 826 827 825 826 826 823 821 816 814 813 811 810 806 803 803 801 803 804 804 806 813 817 815 820 821 819 830 837 841 845 850 856 854 853 855 852 855 854 853 852 841 829 825 830 835 825 825 832 833 842 848 845 845 843 837 836 835 834 832 831 829 827 827 825 824 822
812 812 813 813 813 813 812 811 811 810 810 809 808 809 813 815 815 818 820 821 825 826 825 827 827 826 825 824 823 819 817 813 811 811 808 806 803 802 808 810 808 813 827 832 827 824 822 826 841 846 848 853 855 860 859 857 859 856 855 852 848 847 838 825 825 833 835 828 829 834 838 845 848 846 846 843 839 838 839 838 835 833 831 829 829 827 825 824
813 813 813 813 813 813 813 813 812 811 811 809 809 811 816 817 816 817 819 822 826 826 826 827 826 826 825 824 823 822 820 816 812 811 810 808 805 807 816 818 818 824 831 831 825 823 825 832 844 851 857 860 860 861 857 854 855 854 855 851 840 837 833 822 823 834 836 830 827 830 838 845 847 847 846 845 843 843 843 841 839 836 833 830 829 828 827 824
813 814 814 814 814 814 814 813 813 813 811 810 811 814 816 816 817 817 817 821 825 826 826 826 826 827 825 824 824 822 820 823 823 818 815 812 812 818 822 823 825 829 832 828 823 826 832 837 847 858 859 853 850 853 852 848 847 850 851 843 833 836 839 826 820 830 836 835 833 831 839 847 847 846 846 846 844 844 844 842 841 837 834 834 831 830 828 825
814 815 815 815 815 815 815 814 814 813 812 813 814 815 816 817 817 817 818 824 827 826 826 826 826 827 827 827 826 824 824 830 832 827 822 820 821 824 828 832 830 830 840 841 833 832 836 843 854 860 854 844 841 845 849 844 841 845 844 837 832 836 843 836 829 833 832 836 840 833 830 835 840 843 845 847 845 844 845 842 839 836 835 835 832 830 829 827
815 815 816 816 815 815 815 814 814 814 814 815 815 816 817 817 817 816 818 826 828 826 826 826 827 827 829 829 827 828 828 830 834 833 829 828 828 827 832 839 834 831 843 847 838 833 837 849 856 849 844 843 840 842 849 848 842 839 836 835 834 837 844 843 843 838 820 818 830 828 815 812 830 845 845 845 847 845 844 841 837 836 835 833 831 830 829 827
816 816 816 816 816 815 814 814 815 815 815 816 817 817 817 817 817 817 819 827 832 833 830 827 828 830 830 831 830 829 829 830 835 836 832 831 832 830 832 840 839 837 844 846 841 839 841 850 852 844 840 840 838 841 849 852 845 833 832 838 840 844 845 842 845 838 815 810 824 830 816 805 820 840 843 844 849 846 842 840 838 837 835 834 833 831 829 827
816 817 817 816 816 815 814 815 815 816 816 817 818 817 817 817 817 817 820 832 841 841 839 834 834 835 835 837 834 829 835 839 835 835 835 834 834 832 831 838 840 841 851 848 838 840 843 842 843 842 839 836 836 840 846 851 844 829 833 843 841 841 841 842 846 839 829 825 823 827 825 808 805 826 846 846 844 846 842 841 840 838 838 836 834 832 830 828
817 818 817 817 817 815 816 816 816 817 817 818 818 817 818 817 818 818 822 844 855 846 844 843 838 839 841 842 840 837 845 848 840 838 839 836 835 833 832 841 841 840 851 846 832 841 847 840 841 842 837 836 837 841 848 852 841 829 837 846 843 845 845 847 844 838 846 838 812 813 824 813 798 814 844 845 839 846 845 843 843 839 839 837 834 833 830 828
818 818 818 818 818 817 817 817 817 818 817 818 817 818 818 816 818 819 826 851 860 848 849 848 840 845 850 845 844 848 850 849 849 847 842 840 838 836 839 846 846 843 848 846 837 844 849 847 851 847 839 840 838 841 850 849 840 836 842 842 842 850 852 852 845 836 841 829 806 808 817 815 800 799 827 837 836 848 847 843 844 839 839 837 834 833 829 827
819 819 818 818 818 818 818 817 818 818 817 818 818 818 818 817 820 825 841 859 859 854 856 852 851 860 861 848 844 852 853 852 858 853 846 848 844 841 846 849 847 842 844 845 839 844 852 854 857 851 845 848 844 844 850 850 845 841 841 834 828 836 842 848 847 836 827 816 809 814 817 821 810 803 828 839 836 847 847 843 843 838 838 836 832 831 828 826
819 819 819 818 818 818 818 817 818 817 818 818 818 818 818 822 829 839 858 866 860 860 860 858 866 869 868 863 856 857 857 855 861 856 850 856 853 848 848 852 853 843 840 844 839 840 846 846 849 852 853 855 850 845 848 853 852 843 840 834 826 829 831 832 833 830 828 819 812 816 823 828 816 808 832 843 839 845 845 842 842 837 836 835 831 829 827 826
820 820 819 818 818 818 817 817 817 817 818 817 818 819 818 827 844 860 870 865 860 868 870 870 874 871 874 875 868 867 864 859 862 863 863 866 869 870 868 872 873 856 848 855 850 842 839 839 846 852 854 855 849 842 842 845 845 843 841 840 839 844 844 839 834 834 835 823 810 817 830 830 813 809 831 843 840 842 842 841 841 837 836 833 830 828 826 825
821 820 819 818 818 817 816 817 817 817 817 817 819 821 821 832 857 878 879 867 867 879 882 881 880 879 879 869 865 873 871 863 864 867 870 870 871 877 880 883 883 868 859 862 861 852 842 840 844 845 848 852 849 846 847 842 842 847 847 845 850 861 868 864 853 846 841 825 811 820 833 823 806 812 834 841 839 840 840 840 839 837 835 832 829 828 826 824
821 820 819 819 817 817 816 815 816 817 817 817 818 820 827 846 871 884 879 875 882 886 886 888 882 877 874 867 871 878 868 863 867 866 866 866 867 872 876 879 881 879 872 867 871 870 856 846 843 842 846 849 848 854 857 850 849 856 856 852 854 863 875 874 860 852 849 835 822 825 828 813 803 818 836 839 839 840 838 837 838 836 833 832 830 828 826 823
822 821 819 818 818 817 817 816 816 817 816 817 823 831 842 863 882 884 880 885 890 886 885 891 882 868 864 869 879 881 870 865 868 868 868 871 875 878 881 883 884 886 878 868 876 881 868 855 848 849 854 851 849 857 861 853 849 856 860 856 858 864 868 866 858 855 860 856 843 833 822 810 815 833 843 842 842 840 837 836 836 833 831 829 827 825 822 818
822 821 819 819 819 818 817 817 816 818 818 816 828 852 868 878 885 886 888 891 892 893 886 881 877 866 862 867 872 875 875 870 867 867 871 879 883 882 885 887 888 891 884 877 881 881 869 856 849 852 853 853 857 859 861 858 849 851 860 861 865 869 865 864 862 861 868 868 851 834 824 816 821 835 844 847 844 839 838 836 832 829 826 824 824 822 819 816
822 822 821 821 820 819 819 819 817 817 818 819 836 869 887 889 890 893 896 895 898 902 887 870 873 876 874 872 868 870 873 869 868 868 870 878 881 883 887 888 889 893 892 889 885 884 882 866 856 859 852 853 867 863 860 866 859 855 864 866 866 865 864 871 876 873 875 872 850 834 832 827 824 832 842 846 842 838 837 832 827 825 823 824 825 822 819 816
822 822 822 823 823 822 820 819 820 817 817 833 860 883 891 892 895 897 899 899 901 900 884 872 878 883 883 878 873 879 879 869 870 872 872 875 878 885 891 889 891 894 896 895 884 887 894 872 857 866 861 855 865 861 856 865 866 863 868 872 871 872 873 879 885 884 883 878 857 842 840 833 825 830 839 841 840 839 836 830 827 826 826 828 826 821 818 814
822 822 825 828 825 824 823 820 822 819 821 848 875 885 888 891 895 900 901 900 901 895 883 882 886 884 885 884 880 887 888 879 878 878 875 876 879 890 897 894 893 893 897 898 889 891 897 879 859 862 863 856 858 861 861 866 869 868 871 879 883 883 883 886 888 886 884 881 866 855 848 834 825 832 839 841 841 838 834 830 829 830 830 830 825 820 817 812
823 824 829 831 826 827 826 818 822 829 840 867 884 885 890 892 892 901 907 903 899 893 886 888 890 883 884 888 888 891 893 890 888 881 877 881 883 890 903 907 901 898 899 898 895 896 895 885 870 859 859 859 862 871 872 869 872 873 877 888 894 890 888 892 892 885 884 884 877 871 856 832 826 836 840 840 840 837 834 833 832 832 831 828 824 820 815 811
823 825 831 831 828 829 824 822 843 860 867 880 886 887 892 892 890 899 909 909 901 894 892 891 889 887 886 886 889 894 894 891 891 886 882 887 886 887 905 918 914 909 902 891 893 898 893 890 885 873 864 862 869 882 882 875 878 880 883 892 900 899 894 895 894 883 882 885 882 882 867 836 828 837 838 838 839 836 835 836 835 833 830 826 822 817 812 808
825 832 836 831 830 829 824 840 873 882 877 881 886 888 893 894 894 896 902 907 901 895 894 892 890 893 893 888 889 895 893 887 888 887 886 891 893 894 909 922 920 917 907 893 896 903 898 897 893 880 873 874 883 892 890 887 887 886 892 898 903 905 901 901 900 889 885 884 879 883 870 838 830 837 836 837 840 837 837 837 836 832 828 824 819 813 808 804
832 837 836 832 831 828 829 853 880 883 883 891 893 894 897 896 894 893 896 899 895 891 889 889 891 892 892 894 893 891 891 887 885 887 888 893 900 906 916 922 918 915 908 895 896 901 899 898 891 877 876 883 889 893 893 893 890 889 899 906 907 909 906 904 902 898 898 890 882 888 872 838 829 835 835 838 841 839 837 838 837 831 825 821 816 810 804 799
837 838 837 834 828 826 834 855 872 878 887 892 890 892 898 898 895 892 892 893 893 891 886 887 892 891 893 900 896 890 889 885 883 890 893 893 902 915 922 922 916 912 906 899 900 900 893 891 891 888 887 884 880 883 885 885 886 893 905 911 909 910 909 905 904 908 904 885 880 893 877 839 826 833 836 840 842 839 838 839 837 831 824 818 812 806 801 796
837 839 841 839 833 834 849 865 868 872 882 884 884 891 893 894 897 896 894 894 897 898 889 888 895 896 898 901 897 894 893 886 884 893 896 895 903 916 922 921 918 914 911 911 914 907 897 895 896 898 905 903 894 888 885 884 888 894 904 910 908 908 907 903 905 911 902 882 881 893 876 841 829 835 839 842 843 840 840 838 833 828 821 815 809 802 797 793
837 842 847 847 846 851 866 879 873 870 878 878 880 892 891 886 893 900 897 893 897 900 895 894 898 897 896 896 891 889 892 892 892 894 896 897 901 912 921 921 919 917 914 915 918 910 903 903 900 899 904 906 899 892 888 891 894 890 894 903 906 907 906 904 907 906 898 889 884 880 870 851 840 842 843 843 844 843 840 836 830 824 817 810 805 800 794 790
841 852 859 855 854 859 868 879 880 876 880 878 879 891 891 886 890 894 894 894 896 899 897 898 900 894 891 893 889 886 890 895 896 897 902 905 903 910 921 921 917 917 914 915 917 909 900 899 903 905 903 898 896 895 893 897 897 889 890 900 904 907 907 907 909 901 896 897 883 865 865 863 851 846 845 844 846 844 839 834 827 821 814 808 803 798 792 786
846 859 870 862 859 867 869 876 883 883 882 883 889 894 889 886 888 887 889 894 896 897 893 891 898 900 900 900 894 889 891 890 890 897 906 909 907 906 910 912 914 916 913 911 914 912 902 899 907 912 905 899 901 900 896 897 896 891 894 900 902 905 907 906 906 899 896 899 885 867 868 867 856 849 846 845 846 842 836 829 822 816 810 805 800 795 789 783
853 860 872 869 869 881 886 886 888 882 880 884 889 892 889 885 887 893 899 894 889 894 892 885 893 904 907 906 899 895 897 893 892 899 905 908 909 905 902 903 908 913 912 910 914 918 908 899 906 915 910 901 897 895 895 896 894 893 898 902 902 904 904 902 901 897 895 893 884 875 872 866 858 853 849 845 843 839 832 824 817 811 805 799 795 789 784 779
849 851 863 868 875 888 893 892 886 876 879 885 883 889 896 890 887 897 905 896 886 891 895 890 895 904 908 908 901 897 901 901 898 902 906 907 909 908 906 907 907 908 911 913 916 917 909 901 908 920 915 900 892 892 893 894 896 898 898 900 903 901 898 899 899 897 894 889 880 878 875 866 858 855 851 844 840 836 830 822 815 810 804 797 791 785 779 775
844 847 852 855 871 890 889 890 890 876 875 885 885 891 897 892 894 899 900 901 898 895 897 897 898 904 909 908 903 901 905 905 902 905 908 908 909 910 911 914 914 910 910 918 921 919 916 911 915 925 915 895 891 895 893 892 897 901 902 901 903 902 898 899 900 897 894 888 879 877 876 867 857 854 848 839 835 833 827 820 814 807 801 794 788 782 776 772
845 849 849 848 867 892 892 889 889 877 879 893 897 897 897 896 906 905 893 898 906 903 903 904 900 900 900 897 901 906 908 908 909 912 914 913 915 918 918 919 921 917 915 922 927 931 931 921 918 927 914 891 891 900 898 892 889 892 901 905 903 902 900 895 894 893 890 887 885 880 873 864 856 852 845 833 828 828 824 818 812 805 797 789 783 778 773 770
Wind_Speed
3 4 6 7 8 8 8 8 8 9 10 10 9 9 10 11 11 9 9 11 12 12 13 12 12 11 9 8 7 6 7 13 20 23 17 10 15 17 15 12 11 12 12 12 13 8 7 10 11 11 5 3 4 2 3 3 3 4 3 1 2 3 3 5 6 5 3 4 6 3 3 2 6 5 3 3 2 4 7 7 5 5 8 12 17 17 17 16
4 5 7 8 8 8 8 8 8 9 9 9 9 9 9 11 11 9 8 10 11 11 11 11 12 10 9 7 5 4 3 8 17 19 15 14 18 17 13 12 11 11 12 11 12 9 6 5 7 8 6 2 3 1 2 2 3 3 3 1 3 5 4 5 5 4 3 4 7 4 4 1 4 4 4 5 7 7 7 10 5 6 10 13 17 18 19 18
6 7 8 8 8 8 8 8 9 9 9 9 9 9 9 10 9 8 7 8 9 10 11 11 10 8 8 6 4 2 1 4 11 11 14 17 17 16 13 12 12 11 10 9 8 6 3 1 2 4 4 2 1 1 2 2 1 1 3 1 5 5 4 4 5 6 4 4 7 6 3 2 3 2 3 3 8 9 6 8 5 8 12 13 11 9 12 14
7 8 8 8 8 8 8 8 9 8 8 8 9 9 9 9 8 5 5 8 9 10 11 12 12 9 7 6 7 3 1 6 5 8 14 17 16 16 13 12 15 12 8 7 6 4 2 2 3 4 3 2 3 3 2 2 1 2 3 3 5 3 2 4 5 5 3 1 3 4 4 7 2 1 2 2 6 8 6 5 4 9 14 16 15 11 10 11
8 8 8 8 7 7 8 8 8 8 8 8 9 10 10 8 4 5 6 8 9 11 12 13 13 11 6 7 11 3 3 6 4 10 15 16 16 16 13 12 16 14 8 6 5 3 3 4 6 6 4 2 3 3 0 2 2 2 2 4 4 3 2 4 1 1 3 1 2 5 6 6 2 1 1 1 2 5 6 7 6 10 12 13 14 14 13 10
8 8 7 7 7 7 7 8 8 8 8 8 9 11 10 6 6 6 7 8 10 11 12 13 14 12 6 9 13 7 7 3 6 12 15 15 16 16 14 13 15 15 8 5 5 3 3 5 5 3 3 2 1 1 1 2 3 0 3 2 0 2 2 5 4 4 4 4 5 4 4 4 4 4 1 3 5 8 8 10 10 10 11 13 12 12 13 13
7 7 6 6 6 7 7 8 8 7 7 8 9 10 8 7 8 6 7 8 10 11 12 13 15 13 6 7 13 13 9 1 7 12 14 16 16 16 14 11 13 13 7 5 6 3 3 6 5 3 3 3 1 0 1 4 4 2 3 4 2 1 2 4 6 5 5 5 5 2 3 4 3 4 2 2 7 8 10 10 10 11 13 15 14 14 15 16
7 6 6 6 7 7 8 7 7 7 6 7 7 8 8 7 7 6 6 7 8 11 13 13 15 14 5 4 6 8 5 3 10 14 15 16 16 17 12 9 11 10 7 9 7 1 2 5 2 3 3 2 2 1 3 4 4 3 3 3 2 0 3 6 7 5 6 5 3 2 3 5 5 2 1 5 7 10 12 10 10 12 15 17 18 19 18 18
6 5 5 6 7 7 7 7 6 6 5 6 6 6 7 7 6 5 6 6 7 10 12 13 14 14 7 3 6 6 3 8 13 15 17 17 18 16 9 7 10 9 8 10 8 4 2 1 0 2 2 0 2 1 2 3 3 2 3 3 3 4 5 7 7 5 7 3 1 4 5 6 4 1 1 5 11 14 12 12 14 15 19 20 18 19 18 20
5 5 6 7 7 7 6 6 5 5 5 5 5 4 4 4 5 4 4 5 7 9 12 12 11 13 12 6 6 7 6 11 16 18 18 17 16 10 4 5 9 8 7 9 10 8 4 1 3 3 5 2 1 2 2 2 1 2 3 2 3 5 4 6 6 5 5 1 1 6 7 6 4 1 3 9 14 15 14 18 18 19 20 19 17 17 19 21
5 5 6 7 6 6 5 5 5 5 6 5 4 2 1 2 3 3 4 5 8 9 11 11 8 9 14 11 7 5 7 12 18 22 17 14 12 5 3 6 8 7 6 8 10 9 6 2 4 3 2 1 0 2 2 1 1 1 4 3 5 6 2 7 6 5 4 1 1 5 3 4 5 5 6 13 15 12 16 20 21 20 18 17 17 17 17 20
5 6 6 6 5 5 5 5 5 5 5 5 4 2 1 2 2 3 3 5 8 9 10 10 8 5 7 10 7 4 9 12 20 25 18 13 9 7 7 7 7 6 5 7 8 9 8 2 6 6 0 1 1 1 0 1 1 1 5 4 7 7 4 7 6 5 4 1 5 4 2 6 6 8 12 14 13 12 18 20 19 18 15 15 15 14 15 19
5 5 5 5 5 5 5 5 5 5 5 6 6 5 3 2 2 3 4 6 7 10 10 8 9 6 4 5 3 6 11 13 22 26 20 15 10 8 9 8 6 6 5 7 7 8 8 4 8 7 3 3 0 0 2 4 3 0 5 3 5 7 3 6 5 7 5 3 10 4 3 5 5 10 17 16 13 15 19 17 15 14 13 13 13 12 13 18
4 5 4 5 5 4 5 5 5 5 5 6 6 6 5 3 3 2 4 5 6 10 9 7 8 5 5 2 1 10 14 15 26 30 23 16 11 8 8 6 5 6 5 7 8 8 7 8 12 7 3 4 1 1 4 5 4 1 3 3 4 4 5 6 5 9 8 4 11 7 4 4 5 13 16 13 12 14 16 14 13 13 12 12 12 12 13 16
4 4 4 5 5 4 5 6 5 5 6 7 8 7 5 3 3 3 3 3 4 10 9 7 8 4 4 2 1 13 18 18 28 31 25 16 12 10 7 7 6 7 8 8 9 9 8 9 12 5 3 2 2 5 4 4 4 4 4 3 4 3 6 9 4 6 7 4 9 9 2 3 5 13 14 11 11 12 15 13 14 14 14 14 12 12 11 12
3 4 4 4 5 5 5 6 6 6 7 9 13 13 9 4 2 2 3 4 4 9 10 8 8 5 5 2 6 13 16 17 23 28 24 14 11 11 6 7 8 8 9 8 7 7 10 10 6 2 2 4 5 5 4 5 5 4 5 2 5 4 7 9 3 4 5 3 8 8 1 3 5 10 11 11 11 12 15 14 14 15 14 14 12 12 12 12
4 4 5 5 6 6 6 6 6 6 7 9 13 17 19 15 7 1 5 4 3 6 9 10 8 3 5 5 7 9 12 14 19 28 27 13 9 13 8 5 5 5 6 8 11 7 10 8 2 1 4 6 5 4 6 6 6 4 5 2 3 3 4 6 5 3 7 7 7 6 1 1 5 8 8 10 11 13 15 13 13 12 12 12 11 11 12 13
4 5 6 6 6 7 6 5 3 3 4 7 10 11 14 18 20 18 9 2 2 4 6 12 10 3 3 8 6 9 15 14 17 28 28 14 8 13 13 7 3 3 2 7 11 7 6 4 2 3 5 7 7 7 7 2 3 3 4 3 3 3 3 5 6 4 8 8 5 5 2 2 6 6 7 9 10 12 13 10 10 10 11 11 11 11 12 13
4 5 5 6 6 7 6 7 5 3 4 7 5 2 2 6 13 23 25 16 7 5 3 7 7 3 2 6 8 15 14 8 15 28 30 20 9 9 13 11 5 4 5 4 6 7 4 3 5 6 7 8 6 4 3 3 4 4 4 2 3 4 5 8 8 4 5 6 4 4 3 4 6 5 7 7 7 11 11 9 9 9 10 10 10 10 11 12
5 5 5 6 7 7 8 10 9 5 3 2 2 3 3 3 4 9 16 15 7 5 5 1 2 2 3 4 10 19 11 3 10 24 33 24 8 6 10 9 6 7 6 2 3 5 4 7 7 3 4 6 5 2 2 2 2 2 1 2 4 4 6 9 7 4 3 4 2 2 3 5 5 5 6 5 7 12 12 11 11 9 9 9 10 11 12 11
5 5 6 7 7 8 10 12 13 10 6 3 3 4 1 1 4 2 3 5 2 3 6 1 0 1 3 3 10 15 5 2 7 19 34 24 5 5 7 7 8 8 6 1 2 5 5 8 3 4 5 5 4 1 2 1 1 1 1 2 4 3 6 11 6 3 4 5 3 1 5 4 3 4 5 6 9 12 11 11 11 11 10 9 10 12 11 10
5 5 6 7 7 8 10 13 15 14 13 12 11 8 4 3 4 4 2 4 2 3 4 1 3 3 3 1 11 12 1 5 10 18 32 23 8 6 4 6 9 4 6 3 3 6 7 5 4 5 2 1 2 2 2 1 3 2 1 0 4 4 6 10 4 1 3 3 3 2 5 3 2 4 4 6 8 7 7 9 9 10 10 10 10 10 11 11
5 6 6 6 7 7 7 9 11 13 17 17 12 7 5 4 4 4 4 5 1 3 3 3 4 5 5 3 13 13 6 8 6 14 29 19 7 5 4 6 7 2 7 7 6 5 4 3 3 0 2 3 3 4 4 3 2 1 0 1 4 5 4 6 3 2 4 2 3 1 4 3 3 2 2 4 5 5 5 6 8 9 9 9 9 8 10 12
5 6 7 7 7 6 3 3 6 11 15 16 13 9 6 4 2 3 3 3 1 1 1 1 3 4 5 4 15 11 5 6 1 10 24 14 4 3 4 4 5 5 5 4 7 7 2 3 1 4 3 4 3 5 6 5 5 2 2 2 4 6 3 6 6 8 6 1 1 2 3 2 4 2 0 2 2 4 5 6 9 10 9 9 8 8 10 10
6 6 7 8 8 6 2 2 5 8 9 9 9 7 6 5 1 2 3 3 4 3 1 1 2 7 5 6 16 6 3 5 2 7 17 11 5 3 3 1 3 6 3 1 5 5 1 2 2 3 4 6 5 4 3 3 5 5 3 4 5 7 8 8 8 8 6 2 1 2 2 3 3 4 2 0 2 4 5 7 10 9 10 10 10 9 9 9
7 6 7 9 9 8 3 1 4 5 5 5 5 3 3 5 2 3 4 5 5 4 6 6 4 11 11 10 14 3 3 6 2 6 15 12 5 3 4 3 2 4 2 3 3 2 1 2 3 3 3 5 6 3 0 1 4 5 2 4 5 6 8 9 6 4 3 4 4 1 1 4 2 2 3 1 2 5 6 9 10 8 9 10 9 8 9 9
7 5 5 9 11 11 4 1 4 4 3 2 4 3 2 3 2 3 3 6 5 2 6 7 4 10 11 10 13 4 4 7 5 8 15 13 8 2 5 4 2 3 1 3 3 0 1 5 6 5 4 6 6 5 2 1 4 4 2 2 6 9 8 8 3 1 2 4 4 2 2 3 3 3 4 3 1 6 8 9 9 8 8 8 8 8 9 9
5 3 3 8 11 11 6 2 3 3 2 3 4 3 2 2 1 2 5 5 4 2 2 4 5 8 9 9 12 7 2 6 4 7 15 14 10 3 4 3 2 1 2 5 3 3 2 4 5 4 5 6 5 5 3 2 1 6 5 3 8 7 5 3 1 3 2 2 5 4 1 2 6 3 3 3 1 6 7 6 7 7 7 7 7 8 8 8
3 1 4 7 8 9 8 4 3 3 3 4 4 4 3 2 1 3 6 4 2 2 1 3 6 7 9 9 9 6 3 4 4 6 14 13 12 7 4 1 4 2 4 5 4 4 2 0 1 2 4 3 5 6 2 5 1 7 5 6 3 1 1 1 1 1 2 2 4 5 1 2 8 5 0 0 2 4 5 3 4 5 6 6 7 8 8 8
4 3 5 7 5 6 7 4 4 4 3 4 4 3 2 3 4 6 5 1 1 3 1 3 4 5 8 9 7 6 5 4 2 6 7 6 10 10 4 1 4 5 4 5 5 3 2 0 1 2 2 1 4 6 2 6 4 6 6 6 3 3 3 2 1 1 3 3 5 6 2 2 8 6 1 1 1 1 3 3 4 5 6 7 8 8 8 8
7 6 6 8 7 7 6 3 4 4 3 3 3 2 2 3 5 7 3 1 1 4 4 4 4 4 8 6 4 6 5 5 6 6 6 4 8 12 7 4 4 5 7 6 6 7 4 2 1 1 1 1 1 4 1 1 3 4 5 5 6 5 3 4 4 4 5 7 7 3 2 3 7 5 2 2 2 3 2 4 5 7 8 7 8 8 8 8
8 7 8 9 8 7 5 3 4 3 1 3 3 3 4 4 6 3 1 4 2 2 3 3 4 5 6 3 3 6 4 5 5 5 4 3 6 8 7 5 2 4 6 4 6 7 4 1 2 2 1 1 2 4 4 4 5 6 5 5 6 6 6 6 5 4 3 8 7 2 2 3 7 5 3 4 3 2 1 3 5 7 7 8 10 10 9 9
11 9 8 11 10 9 6 3 2 1 0 1 3 5 7 6 3 1 3 3 2 2 1 1 4 4 4 4 5 5 2 3 5 4 2 2 4 4 4 5 3 3 2 2 4 6 5 5 5 4 2 1 4 4 5 4 5 6 3 4 5 4 6 6 5 4 5 10 8 2 2 6 6 3 4 6 4 3 1 3 5 6 7 7 10 10 10 10
13 11 11 14 15 13 8 2 1 3 2 3 4 6 9 6 1 1 3 3 1 4 2 1 5 5 3 3 3 4 2 3 4 5 4 4 5 4 4 6 7 4 1 2 2 3 5 5 4 4 3 2 5 3 2 3 3 2 2 4 5 3 1 3 4 4 8 12 12 6 3 6 7 4 3 4 2 2 2 4 5 6 7 7 8 9 10 11
13 16 19 20 18 16 11 5 4 5 4 7 8 7 8 3 3 1 1 4 2 4 3 1 4 4 4 3 3 3 2 2 3 5 5 4 3 2 3 4 6 4 3 3 1 1 2 4 5 3 2 3 5 1 2 2 2 1 2 4 3 0 3 3 5 5 5 8 9 6 3 4 4 2 1 1 4 4 5 6 7 8 9 8 9 11 12 13
9 15 21 24 21 15 11 7 4 5 4 8 10 7 3 2 2 2 2 2 1 2 4 4 5 5 5 5 4 5 2 2 3 4 4 2 1 2 2 2 2 3 3 2 1 1 2 5 6 6 4 3 4 2 2 3 2 2 3 3 4 3 6 2 6 3 2 6 5 4 6 6 3 2 1 4 5 6 8 9 10 13 15 15 14 13 14 15
6 7 15 24 24 14 8 7 6 6 6 8 9 4 1 2 1 3 2 1 0 1 3 4 3 3 3 4 4 7 6 3 4 4 2 1 1 3 4 3 0 2 1 1 1 1 0 5 6 4 5 4 1 2 4 4 2 2 3 4 5 0 4 1 3 3 4 6 5 5 12 12 7 4 2 3 6 8 11 14 17 19 20 18 15 14 15 16
6 2 8 22 23 13 6 5 8 11 9 9 8 4 1 0 1 2 2 1 1 1 4 3 1 1 1 1 4 6 6 4 5 4 2 2 2 2 3 3 1 3 3 2 1 1 2 3 6 1 3 6 1 4 4 5 4 5 3 2 2 1 2 2 1 3 5 7 7 8 14 11 5 3 2 4 7 10 15 19 21 21 18 15 14 15 17 18
6 2 5 18 20 13 10 8 8 10 10 7 4 2 1 0 1 2 2 1 1 3 4 1 1 2 1 1 1 4 3 2 3 3 2 2 2 3 3 2 2 4 5 2 1 1 1 1 5 4 5 6 4 4 3 4 5 4 4 3 3 1 3 2 2 2 3 8 9 9 12 8 2 2 2 6 9 13 19 21 19 17 15 13 14 15 16 18
3 3 4 17 15 8 16 22 14 9 8 5 2 2 1 1 2 0 0 1 1 1 2 0 0 2 2 1 0 2 2 1 1 1 2 2 2 2 4 3 3 6 6 4 3 1 1 1 3 6 6 5 4 3 2 1 3 4 4 3 3 1 1 2 1 2 1 6 7 8 11 8 0 1 2 6 10 16 22 20 14 13 13 14 16 17 16 16
4 4 4 17 12 3 12 21 13 5 5 4 2 2 1 1 0 2 1 2 1 1 1 3 2 1 0 1 1 1 1 1 0 1 1 2 4 3 2 3 2 5 5 5 3 2 2 1 2 5 6 4 2 3 3 1 3 3 2 1 1 1 1 2 3 1 0 3 4 6 11 10 2 2 1 6 12 19 21 16 12 13 15 17 18 19 18 17
6 4 6 15 10 7 12 11 4 3 5 3 2 2 1 1 2 2 1 1 0 1 1 3 2 1 2 1 1 1 0 1 1 1 0 1 3 2 2 2 3 2 1 2 2 2 0 2 0 4 4 3 3 2 2 4 7 7 3 2 2 2 3 1 3 5 3 4 5 5 10 10 1 3 3 10 15 19 17 12 12 15 17 18 20 21 21 19
4 3 7 16 8 3 12 7 3 5 4 0 1 1 2 2 1 1 1 0 1 1 2 1 1 0 1 1 1 1 0 1 2 1 1 1 1 2 2 4 4 2 0 1 2 2 1 3 2 4 4 2 3 3 3 1 6 6 2 2 2 2 2 4 3 2 3 5 5 5 10 10 0 1 8 13 17 18 13 10 14 17 17 19 21 21 20 19
3 3 6 18 9 4 7 5 2 3 1 1 3 3 3 1 1 1 1 1 1 1 1 0 1 1 1 1 1 0 1 1 1 1 2 2 1 2 3 5 5 2 1 1 2 3 2 1 2 4 6 6 4 5 5 3 2 2 1 1 2 2 2 2 2 1 3 7 7 6 10 11 6 8 14 16 18 17 12 12 16 18 18 18 19 19 18 18
4 2 4 16 20 13 5 4 6 5 3 2 4 4 3 2 1 0 1 1 1 2 1 1 1 2 1 1 1 2 2 1 1 2 3 1 1 1 2 4 4 2 1 2 2 2 1 1 3 4 3 5 6 6 5 5 4 1 1 1 0 1 2 1 1 1 5 9 9 7 10 15 17 18 18 17 16 15 14 17 19 20 20 20 18 17 17 18
3 3 3 9 14 11 4 1 5 5 4 4 4 3 2 1 1 2 2 1 1 1 2 2 1 2 2 3 3 2 2 1 1 2 3 1 2 1 1 3 2 1 3 3 3 2 3 2 2 4 5 6 7 9 7 5 5 7 5 1 2 2 1 2 1 3 7 10 9 7 11 20 25 23 19 16 14 15 18 20 21 21 21 21 19 18 18 18
3 3 1 2 4 5 5 4 5 4 3 4 3 1 1 1 3 1 1 1 1 1 2 2 3 3 2 3 4 2 4 3 3 3 2 1 3 2 1 1 2 4 3 1 2 3 4 3 2 3 7 9 9 11 11 5 6 11 9 3 3 4 1 1 2 6 9 9 9 11 17 23 24 22 19 16 15 17 20 21 20 20 21 20 18 20 22 20
3 3 1 1 2 3 4 3 4 5 4 3 3 1 1 2 3 1 1 2 1 1 1 2 5 4 1 1 3 2 6 6 3 2 1 1 3 3 3 1 2 4 2 2 3 3 5 2 2 2 7 12 9 9 9 6 6 9 6 4 3 4 4 3 5 9 10 8 12 20 25 23 21 20 18 17 18 21 22 22 21 19 20 19 19 21 22 21
4 4 0 2 4 3 1 1 2 5 6 4 3 1 2 2 2 1 1 3 4 3 2 3 5 4 1 1 3 2 3 3 3 3 0 2 3 3 3 2 2 2 4 4 4 1 4 3 3 1 6 12 10 7 6 7 10 9 4 5 4 4 5 6 8 11 13 13 16 21 24 23 17 16 19 21 21 21 20 21 23 21 21 21 22 22 21 21
2 4 2 4 5 2 2 2 2 4 4 4 3 2 1 2 0 1 0 2 2 4 4 3 5 3 1 2 3 2 1 3 4 6 3 1 3 0 1 0 2 4 6 4 3 2 3 5 4 2 3 8 7 5 9 10 8 6 3 2 3 6 7 8 9 10 12 15 19 20 20 18 11 12 20 22 20 19 19 23 25 23 23 24 23 23 22 20
5 6 7 7 4 4 3 3 2 4 3 3 2 1 0 1 1 1 0 1 2 1 1 2 3 2 1 2 3 0 3 5 5 5 3 2 1 2 1 1 1 3 5 3 2 4 5 4 3 4 3 6 4 7 16 16 4 1 2 3 6 10 11 9 8 8 13 19 22 19 14 11 10 14 20 22 21 22 25 27 26 24 26 26 23 22 21 17
7 5 5 7 4 3 3 2 3 4 2 2 1 1 1 1 0 1 1 1 1 1 1 1 1 0 2 2 2 0 3 4 2 0 2 3 4 4 2 2 4 2 0 1 1 2 3 3 3 4 4 7 9 11 16 14 6 3 2 4 8 11 14 15 12 12 15 14 15 14 11 11 16 19 21 23 24 25 27 26 25 26 28 25 22 21 20 19
Wind_Direction
63 61 65 70 66 62 59 53 47 34 27 28 34 38 37 34 31 41 55 49 37 29 28 38 63 78 88 94 88 87 60 55 54 50 49 20 360 360 353 350 354 359 0 2 9 18 20 15 9 14 51 69 13 338 4 17 54 52 83 138 241 210 207 192 191 202 193 275 284 320 59 23 312 324 313 315 3 320 317 307 272 271 262 248 260 275 284 286
76 73 72 72 65 61 55 45 35 26 24 25 31 35 34 33 30 45 56 46 38 31 35 48 62 73 79 85 83 86 91 51 48 45 32 9 4 3 -0 4 -0 356 359 4 12 28 39 355 342 16 47 52 346 343 26 18 63 82 125 161 228 204 216 197 183 201 201 278 287 317 31 15 287 316 353 327 319 343 327 304 301 286 278 268 267 272 281 277
80 77 75 72 65 58 48 36 29 27 26 24 27 25 25 23 22 41 52 45 38 31 35 38 44 55 60 65 60 54 194 47 41 23 8 5 4 5 8 10 1 353 354 1 6 21 54 336 352 44 52 67 332 346 51 35 19 146 130 200 239 214 243 236 205 220 233 292 317 337 10 316 285 303 348 336 313 325 307 286 303 307 306 306 291 282 293 281
80 78 75 70 63 53 41 31 28 28 26 23 22 17 10 6 17 50 59 48 40 32 29 23 23 22 28 30 8 335 193 60 27 337 356 2 360 1 1 2 2 356 345 356 2 12 57 73 56 58 62 56 335 1 58 346 353 157 145 193 221 186 274 262 212 241 281 352 331 341 340 315 329 71 325 0 324 316 296 263 267 300 306 307 309 310 305 289
80 79 75 68 60 47 35 27 26 26 24 22 18 10 358 360 42 88 69 52 40 32 24 19 19 15 23 21 2 317 134 60 334 333 357 357 355 355 351 353 -0 357 349 358 1 10 32 43 52 48 50 52 348 16 196 290 65 148 213 201 187 143 268 296 204 326 352 76 342 350 334 317 17 39 275 158 286 281 296 305 292 290 294 300 307 313 314 312
83 80 73 64 50 36 27 22 24 26 23 21 16 8 7 33 98 97 67 51 39 33 26 22 19 21 57 54 37 66 105 78 308 343 356 356 356 349 346 346 354 359 358 2 6 24 29 31 53 57 40 57 21 44 227 315 40 188 276 303 179 160 253 325 358 357 27 33 345 336 321 340 14 324 279 166 236 250 285 308 307 300 306 312 316 323 330 333
86 79 68 52 36 28 24 23 25 26 22 21 18 19 34 76 101 84 61 49 40 34 28 27 20 24 77 82 54 60 81 92 319 347 348 354 355 344 343 340 348 358 4 17 13 48 70 38 57 124 78 52 203 172 357 344 30 102 274 336 21 180 245 313 332 330 32 23 313 313 339 334 323 302 348 276 259 275 302 312 318 323 336 344 351 357 356 355
84 71 56 37 31 25 22 25 26 25 21 22 24 36 56 78 85 69 56 47 39 33 27 23 18 21 54 110 68 53 58 339 333 346 342 342 344 344 342 335 350 2 28 35 19 76 93 41 68 157 71 32 174 126 14 350 19 110 234 312 32 66 285 311 328 341 28 14 308 21 343 277 254 251 327 300 311 327 326 335 344 351 7 15 16 15 15 15
77 58 43 33 30 25 26 29 26 23 16 17 26 44 62 65 62 55 52 45 34 29 22 19 17 21 36 94 89 67 4 333 341 343 341 336 333 339 335 337 1 12 39 36 26 48 55 33 173 153 112 73 140 81 2 5 350 202 238 304 357 341 320 338 345 355 13 0 6 9 328 293 272 250 277 320 346 339 339 4 9 20 28 27 25 23 25 24
69 48 39 32 28 27 31 29 21 17 7 7 16 31 56 55 55 54 51 41 27 21 15 15 18 32 47 57 75 64 340 345 357 347 339 331 329 336 334 356 9 19 44 32 31 42 35 157 169 136 124 106 86 9 6 48 56 212 270 293 29 344 321 359 341 326 351 233 74 355 324 312 305 40 14 341 349 343 2 21 20 30 33 29 30 29 28 29
56 43 39 31 31 32 33 28 18 12 1 0 9 15 35 45 55 48 46 35 21 16 9 12 15 41 59 59 73 62 351 2 4 356 349 335 339 10 35 15 12 22 39 34 35 33 27 134 145 113 98 59 26 1 354 201 155 276 320 327 7 8 10 11 344 315 350 177 13 348 319 332 344 35 9 343 347 356 22 27 24 30 32 29 31 32 32 31
50 44 37 32 33 33 33 25 15 13 10 16 29 26 5 12 31 31 38 28 19 11 360 9 14 23 60 56 69 48 7 11 1 4 13 6 19 61 43 16 10 21 43 46 36 23 28 108 102 79 97 202 161 3 150 140 81 3 21 4 338 13 54 8 346 315 354 18 336 340 59 14 8 16 360 353 355 15 35 32 25 28 30 30 30 32 35 30
53 45 37 33 34 38 34 22 23 34 39 42 44 38 23 7 18 33 33 22 14 9 2 10 13 13 59 57 67 28 16 7 2 12 25 25 43 61 30 18 21 38 61 60 50 37 45 90 99 102 128 102 179 316 107 48 46 26 39 55 347 13 8 357 351 329 7 9 339 12 93 353 11 22 6 1 2 25 40 31 25 27 27 31 29 31 34 30
56 42 33 32 37 43 33 32 40 48 53 43 34 29 23 21 29 34 22 18 14 10 11 18 14 28 67 80 121 15 6 4 10 14 15 18 37 34 22 37 48 53 73 75 68 66 78 89 88 98 87 71 258 0 44 14 24 11 16 47 34 22 315 346 11 1 22 351 345 40 103 324 32 33 12 2 5 34 46 32 26 27 24 28 28 30 31 31
52 37 31 38 45 48 40 39 40 50 60 50 45 36 17 11 17 3 344 343 357 6 10 18 18 47 73 67 14 1 356 5 12 9 5 11 27 17 23 63 64 70 88 87 77 71 76 79 73 63 320 356 48 47 26 352 17 26 20 351 359 23 316 329 5 36 30 319 349 40 79 294 52 40 14 4 7 35 49 36 29 27 23 24 22 27 28 28
48 36 36 48 51 48 44 41 51 72 73 63 61 55 42 25 305 300 320 313 324 355 12 16 6 49 87 358 337 356 355 360 3 2 5 17 27 14 29 77 71 91 103 78 64 57 45 55 72 59 349 8 26 44 44 18 1 6 40 341 314 359 336 328 349 59 38 347 355 27 33 280 46 40 13 11 12 32 48 37 29 27 22 22 18 19 20 18
44 40 47 56 55 54 53 54 74 82 70 73 76 69 62 54 47 315 276 288 331 355 30 27 357 53 84 5 349 354 342 342 351 360 8 19 29 22 41 87 63 89 117 50 36 28 23 37 88 47 42 39 13 25 50 22 339 339 27 15 295 331 325 325 329 351 28 34 359 10 73 288 34 33 13 18 17 33 47 35 29 30 22 23 20 17 18 15
46 52 58 66 65 60 53 45 46 38 58 101 99 84 67 55 56 57 50 79 35 4 33 19 12 79 34 358 353 328 323 332 351 1 9 18 23 26 38 58 37 15 33 25 29 25 8 19 84 46 27 26 19 39 57 2 279 292 318 334 317 316 289 297 298 323 20 18 353 11 6 6 35 28 20 21 19 40 49 38 33 31 26 24 20 20 18 15
59 64 67 74 66 51 38 30 27 40 106 130 119 80 26 33 53 53 51 61 62 43 44 348 12 103 304 327 324 326 327 337 1 3 7 8 3 20 32 37 44 43 36 16 12 14 14 27 44 37 6 353 359 52 101 214 207 228 262 248 267 291 286 278 275 294 15 -0 348 24 350 21 40 17 22 11 14 45 45 39 38 29 28 26 21 21 15 15
70 69 74 72 56 42 40 43 49 67 111 173 241 320 351 2 28 34 35 48 68 86 98 297 0 88 313 309 327 342 350 8 16 9 4 358 347 13 20 19 35 50 45 25 339 348 43 60 46 20 309 301 301 259 197 219 193 194 211 227 250 256 282 285 277 283 9 10 316 38 37 56 56 20 21 355 14 42 33 29 32 25 27 23 21 18 12 13
71 72 81 66 54 52 54 55 55 61 60 56 65 51 96 121 64 74 357 38 62 76 86 119 121 45 301 293 339 349 354 325 8 9 5 1 356 18 5 9 39 38 12 299 296 337 48 64 26 277 253 264 305 259 164 101 107 103 159 234 281 254 272 288 283 282 12 29 296 18 67 77 83 47 24 8 32 40 26 25 24 20 26 22 21 17 9 7
80 85 84 62 60 65 66 63 56 59 62 62 72 79 122 148 100 131 144 81 45 22 70 58 49 23 293 313 355 348 12 2 355 360 3 6 22 31 9 32 58 40 344 12 15 -0 42 51 304 278 225 161 43 69 97 103 133 105 118 129 310 293 289 293 280 235 0 16 283 343 73 136 147 92 52 33 48 46 26 32 25 18 22 17 15 13 6 4
93 96 84 61 63 68 73 66 47 49 56 58 68 86 110 103 109 126 93 94 69 355 33 32 62 21 351 30 357 352 45 33 354 346 357 5 25 48 68 44 54 42 358 27 56 55 53 354 307 110 123 116 55 22 32 36 91 106 180 82 301 314 342 302 299 347 324 302 254 3 75 188 205 123 71 46 53 53 31 31 34 31 28 16 7 7 6 4
109 103 82 58 53 51 62 56 30 41 53 61 69 79 94 85 118 118 73 96 59 349 68 99 125 38 16 6 351 357 71 48 36 340 356 13 24 26 72 57 55 40 7 34 75 88 105 276 116 91 54 75 57 7 32 30 358 324 204 191 283 303 296 259 290 321 326 337 200 75 59 235 212 199 208 34 34 41 23 17 31 30 25 17 9 10 8 6
119 107 77 54 41 27 16 38 34 41 49 63 69 73 84 60 58 140 98 77 17 330 350 47 76 22 1 343 352 1 126 33 73 341 354 19 18 9 55 57 75 35 338 150 75 76 64 280 113 57 20 50 54 24 46 47 357 329 241 210 253 289 284 274 300 324 347 357 265 59 9 287 195 183 222 287 13 24 16 19 27 20 16 15 9 7 3 1
128 115 71 46 31 13 0 47 28 26 39 56 55 60 68 31 35 144 112 65 25 336 352 -0 7 2 351 342 344 353 96 5 340 6 9 16 5 122 70 345 46 31 262 168 75 83 4 352 64 66 50 43 37 39 88 110 35 343 267 196 238 287 294 296 318 340 344 300 277 76 191 266 255 221 245 233 26 16 14 21 20 9 9 10 3 360 356 354
141 125 59 35 27 19 19 61 10 17 49 34 10 14 12 17 67 134 79 44 19 342 355 344 341 358 351 340 341 36 86 325 316 23 15 7 347 124 78 9 25 14 271 115 42 11 312 350 23 39 43 28 18 10 294 144 46 314 236 156 292 303 298 298 322 215 257 289 309 21 150 251 278 235 230 220 44 17 16 16 9 1 358 358 356 351 350 350
148 138 37 25 21 23 36 53 16 40 61 4 3 27 33 45 98 121 81 66 349 331 18 327 334 354 346 345 4 62 107 318 21 1 344 5 5 16 71 47 136 327 336 88 50 298 299 359 6 14 25 20 358 331 280 149 43 271 249 297 298 300 292 271 221 224 266 357 324 319 103 288 284 234 194 210 89 19 8 359 351 350 342 341 347 340 342 347
129 95 18 16 13 24 35 44 46 62 46 13 33 46 45 52 59 58 74 94 321 334 171 333 347 345 345 356 13 43 11 0 72 324 332 11 13 18 69 94 142 129 334 81 89 305 300 132 201 105 56 8 303 299 233 150 265 283 292 306 291 74 61 97 138 230 358 21 285 287 330 297 288 282 262 194 78 10 342 322 320 332 326 325 337 334 334 339
83 47 18 7 2 6 6 21 43 42 24 24 41 33 18 39 60 60 49 70 331 328 284 19 7 337 359 9 354 4 23 9 339 331 348 13 358 15 80 198 105 94 347 39 69 337 314 212 167 113 94 221 286 304 206 165 253 309 346 329 326 55 63 54 57 83 29 329 261 256 255 274 290 287 232 255 153 152 319 320 307 321 328 325 332 332 330 339
64 41 15 1 359 350 341 346 3 352 354 17 17 5 17 27 62 83 70 284 315 338 359 14 350 5 24 28 346 349 14 345 334 10 14 359 6 18 35 11 28 42 4 7 7 350 3 45 45 316 252 145 346 319 311 180 285 347 16 353 348 356 15 18 354 31 23 312 281 261 235 229 267 272 183 198 189 168 319 330 317 322 325 322 330 334 332 338
49 27 7 2 0 349 342 319 322 333 5 20 22 44 70 41 34 81 286 317 340 344 7 330 318 5 5 2 358 335 338 344 357 48 33 17 38 32 38 31 351 7 10 352 339 350 3 328 310 320 308 49 17 334 336 357 10 14 16 21 17 356 353 353 335 356 330 287 291 349 21 261 256 263 184 178 179 176 305 310 301 311 311 315 333 338 336 338
47 28 11 14 12 -0 354 325 316 9 226 11 47 53 76 73 39 277 283 324 11 334 340 273 304 331 336 0 5 333 337 359 358 40 60 74 63 38 36 34 23 31 10 334 346 353 340 316 341 9 338 24 61 27 342 334 7 7 6 53 44 21 350 330 316 328 299 287 296 357 3 295 288 286 186 178 176 176 234 293 285 290 288 306 331 333 329 330
54 42 34 32 29 21 13 352 161 137 139 97 77 50 64 78 212 261 305 279 277 337 346 271 311 325 16 39 349 330 18 355 350 27 16 27 45 11 355 9 16 37 72 42 15 0 353 325 344 22 334 344 46 61 273 285 336 329 191 112 73 69 340 282 273 297 302 299 303 324 328 285 306 327 170 165 182 208 298 307 288 281 278 295 318 320 322 325
54 43 38 35 30 27 31 55 127 141 114 80 69 58 76 107 250 193 280 270 291 330 309 307 352 7 7 344 328 356 40 317 349 47 27 25 55 0 338 343 355 18 63 50 329 353 21 277 274 318 303 8 18 330 225 358 349 265 150 85 35 247 174 219 247 249 279 293 294 305 274 243 289 309 189 9 336 308 304 302 300 301 301 311 321 327 333 333
36 32 32 27 21 22 37 58 105 145 118 79 67 57 99 182 228 155 207 293 355 308 318 349 24 32 348 322 339 357 0 295 351 44 36 32 103 2 339 269 329 18 66 99 250 352 22 283 296 341 344 28 35 320 352 27 332 318 53 20 297 220 152 216 286 285 312 291 279 295 290 290 322 297 293 342 322 306 308 311 319 323 329 335 337 339 335 330
355 20 30 20 14 15 39 63 89 114 103 76 77 87 198 194 160 173 205 356 180 230 42 35 17 23 350 321 328 337 344 346 0 26 26 9 57 5 336 288 316 29 10 137 216 247 156 293 311 3 339 322 105 84 42 37 348 51 52 314 296 301 111 117 289 327 333 281 272 304 297 303 323 316 340 342 310 318 328 331 335 335 338 339 334 330 323 322
342 20 34 15 10 14 36 80 90 92 86 66 72 113 175 79 185 201 184 122 167 38 65 75 3 34 44 327 322 325 344 0 357 15 37 10 34 40 357 321 355 31 353 4 357 331 119 306 302 293 306 309 38 68 17 351 7 85 104 324 354 3 321 22 6 310 311 287 285 299 295 297 304 290 337 347 325 333 336 337 339 336 334 331 324 322 320 321
350 67 25 3 9 32 57 89 90 66 70 72 76 117 143 261 237 204 165 113 114 72 58 61 350 32 89 130 305 309 345 15 342 9 62 29 20 60 50 340 313 358 357 38 72 310 98 61 295 286 307 329 18 42 8 339 347 40 69 23 30 199 247 312 345 276 289 292 293 302 301 298 253 224 327 343 335 340 340 339 339 330 326 325 320 320 320 320
4 92 11 353 0 35 58 68 66 45 64 94 144 132 71 244 245 220 110 22 89 100 53 145 41 19 336 341 335 291 352 45 293 3 36 30 32 45 48 29 327 329 339 26 76 340 0 82 282 299 326 358 23 356 334 0 341 10 44 21 354 357 230 277 276 166 271 294 296 305 298 293 291 143 320 335 339 344 341 336 330 322 322 322 319 318 318 317
55 88 343 352 1 15 50 56 51 38 77 82 117 116 63 210 89 26 18 14 353 203 143 151 139 92 226 352 3 247 334 352 316 14 348 34 45 23 31 48 339 319 338 13 45 7 351 99 270 308 335 356 331 288 277 153 112 90 88 124 159 122 47 331 303 251 207 268 278 292 287 291 333 129 290 345 346 341 335 328 324 322 320 320 319 317 315 313
58 83 322 344 11 64 61 56 15 36 91 70 73 115 47 79 72 31 47 56 279 250 89 116 120 125 169 211 298 223 306 319 298 63 55 68 49 5 343 0 308 284 330 358 323 283 180 108 263 287 302 302 281 315 7 86 95 92 95 110 127 124 98 81 297 305 300 279 281 273 275 289 334 147 321 353 347 331 327 326 325 321 319 320 318 314 313 312
71 108 349 347 336 75 66 62 340 26 74 237 26 79 39 69 77 12 37 30 254 250 25 59 166 88 159 193 257 199 88 239 209 114 66 114 57 14 343 332 310 273 188 4 318 307 58 59 355 295 302 296 264 300 325 77 85 75 57 59 106 131 135 181 223 311 309 293 305 289 279 287 179 89 333 347 337 322 324 332 325 320 318 318 315 312 312 311
100 150 7 13 25 118 85 93 123 62 101 216 45 32 9 49 90 31 339 311 311 135 76 0 235 28 63 140 119 279 332 340 229 57 81 132 101 29 1 338 337 349 56 34 325 336 7 36 26 354 339 335 323 321 310 296 31 66 71 26 103 93 35 231 213 7 287 287 309 304 286 286 304 329 332 335 327 320 326 329 323 319 315 314 313 311 310 310
68 78 336 19 43 70 92 144 140 127 153 109 61 27 6 32 75 318 201 219 242 173 123 0 26 64 68 99 59 322 322 32 298 2 54 101 291 15 3 340 357 40 358 320 307 344 33 104 80 68 353 321 313 306 305 311 320 323 112 62 58 56 36 353 289 281 276 296 307 284 275 290 307 321 325 326 325 324 327 326 321 317 314 313 312 310 310 312
69 54 334 1 31 54 71 100 94 107 140 113 71 18 31 75 268 258 164 145 237 165 63 7 22 62 45 44 32 320 304 16 22 36 54 11 293 303 334 335 355 347 317 332 354 54 97 79 88 148 202 249 259 268 293 325 307 293 303 309 250 273 20 77 8 278 286 301 295 267 281 299 309 318 321 326 332 329 326 323 318 315 314 312 310 310 311 309
93 86 51 344 6 36 46 27 39 76 137 129 104 30 353 320 301 296 166 194 194 122 59 29 43 39 9 23 30 307 299 347 31 60 73 289 279 283 330 350 331 318 319 349 356 66 87 26 330 200 237 255 254 272 293 302 278 287 296 270 238 261 242 141 257 278 294 300 288 297 307 306 308 316 321 329 334 327 321 317 313 310 308 307 307 307 308 306
75 133 195 125 59 43 41 26 50 71 64 82 116 133 351 3 1 348 258 318 23 73 56 39 33 25 296 335 43 351 331 350 13 33 46 327 316 339 4 358 295 314 359 22 346 87 106 23 289 209 272 279 273 271 275 271 272 279 268 218 230 241 237 261 278 283 294 289 288 305 310 305 307 316 323 330 330 323 318 312 307 305 303 304 306 305 306 307
78 112 321 15 82 113 89 353 75 76 55 58 90 95 94 85 43 282 271 0 5 356 41 45 3 356 276 229 97 71 347 354 336 313 14 23 352 11 14 340 274 323 47 37 348 97 120 323 307 211 285 292 288 267 263 289 297 290 247 201 226 247 256 293 309 297 292 284 286 300 305 304 311 323 325 325 322 316 312 308 309 310 309 311 310 308 308 307
143 143 132 61 74 81 34 12 60 74 46 44 73 75 113 138 60 327 26 75 17 349 24 32 335 331 176 172 120 75 249 188 245 264 206 86 338 238 109 194 261 343 30 44 335 348 24 337 335 51 298 291 294 295 299 304 299 294 283 217 271 302 302 314 318 305 303 301 300 304 304 302 313 328 320 316 314 311 311 311 314 316 314 312 309 307 306 306
104 131 138 110 66 357 4 17 55 83 38 14 80 131 180 180 184 6 316 132 94 6 348 345 312 320 97 127 128 309 256 209 229 249 199 154 223 182 147 159 195 339 8 31 344 354 15 355 354 41 346 292 312 332 317 314 321 72 339 348 345 333 323 321 321 315 316 314 311 311 307 304 320 325 316 311 312 316 318 319 319 318 315 311 306 304 304 308
99 100 117 104 76 352 0 2 21 79 72 356 106 156 337 354 43 62 66 29 71 126 191 204 203 0 7 22 98 150 247 212 195 180 109 115 109 101 82 81 86 71 112 113 35 352 26 20 354 11 342 311 328 332 313 313 346 24 10 21 6 344 329 322 322 319 316 314 311 309 310 320 326 324 318 315 316 320 323 323 322 319 315 309 303 305 310 317